www.pogodaiklimat.ru

Погода и климат >> Архив погоды >> Россия >> Ханты-Мансийский АО >> Ханты-Мансийск


АРХИВ ПОГОДЫ в Ханты-Мансийске

Время (UTC), дата Ветер
(напр.,м/с)
 
Видим.   Явления Облачность Т
(С)
Тd
(С)
f
(%)
Тe
(С)
Тes
(С)
Комфортность P
(гПа)
Po
(гПа)
Тmin
(С)
Tmax
(С)
R
(мм)
R24
(мм)
S
(см)
21 16.05 ЮВ 2 10 км 8/0
[Ac trans Cs]
+7.9 -4.3 42 +7 +7 тепло 1014.1 1008.7
00 17.05 В 1 10 км 10/10 600 м
[Cb cap]
+6.9 -2.4 52 +6 +6 тепло 1010.5 1005.0
03 17.05 ЮВ 4 10 км слаб. ливневой дождь 10/10 600 м
[Cb cap]
+7.0 +2.4 73 +4 +4 по сезону 1008.0 1002.6 +6.9 0.3
06 17.05 ЮВ 6
{12}
4000 м ливневой снег {дождь} 10/0 600 м
[As op]
+7.4 +4.5 82 +3 +4 прохладно 1004.1 998.7 +6.6
09 17.05 ЮВ 4
{10}
10 км слаб. дождь 10/10 1000 м
[Frnb Ns]
+7.8 +4.5 80 +5 +5 прохладно 1002.0 996.6
12 17.05 Ю 3 4000 м слаб. дождь 10/10 600 м
[Frnb Ns]
+7.6 +6.3 91 +5 +5 прохладно 1000.3 994.9
15 17.05 ЮЗ 2 10 км в посл. час дождь 10/10 1000 м
[Frnb Ns]
+7.7 +6.5 92 +6 +6 по сезону 999.0 993.6 +8.1 5
18 17.05 З 4-10
{10}
10 км {дождь} 10/10 600 м
[Frnb Ns]
+5.9 +4.7 92 +2 +2 прохладно 998.6 993.2
21 17.05 З 3
{10}
10 км 10/10 600 м
[Frnb Ns]
+2.9 +1.4 90 -1 -1 прохладно 998.3 992.9
00 18.05 З 2 10 км 10/10 600 м
[Frnb Ns]
+2.7 +1.2 90 -1 -1 прохладно 997.8 992.4
03 18.05 З 2 10 км слаб. дождь 10/10 1000 м
[Frnb Ns]
+3.6 +1.0 83 +1 +1 прохладно 997.7 992.3 +2.6 0.0
06 18.05 СЗ 3 10 км {дождь} 6/5 1000 м
[Cb cap Cs]
+6.7 +0.5 65 +4 +9 прохладно 997.9 992.5
09 18.05 З 3 10 км 10/8 600 м
[Cb cap Cs]
+11.1 -2.5 39 +10 +11 по сезону 997.8 992.5
12 18.05 З 2 10 км 8/8 600 м
[Cb cap]
+10.7 -2.7 39 +10 +11 по сезону 998.5 993.2
15 18.05 штиль 0 10 км 3/1 1000 м
[Cb cap Ac cast]
+9.0 -2.2 45 +9 +9 по сезону 998.6 993.3 +12.1
18 18.05 штиль 0 10 км ясно +2.7 0.0 82 +2 +2 прохладно 998.6 993.2
21 18.05 штиль 0 10 км ясно +1.8 +0.1 88 +1 +1 по сезону 997.9 992.4
00 19.05 З 1 10 км 8/8 1000 м
[Cu hum]
+3.2 +1.9 91 +2 +2 по сезону 997.7 992.3
03 19.05 ЮВ 1 10 км 10/10 600 м
[Cu hum]
+6.3 +2.3 76 +5 +5 по сезону 997.7 992.3 +1.1
06 19.05 СЗ 1 10 км 8/8 600 м
[Sc diur, vesp]
+9.1 +0.1 53 +9 +12 по сезону 997.6 992.3
09 19.05 Ю 2 10 км {дождь} 8/8 1000 м
[Cb cap]
+10.4 -0.6 46 +9 +12 по сезону 998.2 992.9
12 19.05 С 1 10 км {дождь} 8/8 1000 м
[Cb cap]
+11.4 -4.2 33 +12 +13 по сезону 998.6 993.3
15 19.05 ЮЗ 1 10 км 8/8 1000 м
[Cb cap]
+9.9 +0.8 53 +10 +10 по сезону 998.5 993.2 +12.2 0.0
18 19.05 СЗ 1 10 км 6/4 1500 м
[Sc Ac cast]
+6.3 -0.9 60 +6 +6 по сезону 998.3 992.9
21 19.05 СЗ 2 10 км 8/8 600 м
[Cb cap]
+5.2 -0.6 66 +3 +3 по сезону 997.4 992.0
00 20.05 СЗ 1 10 км 3/0
[Ac cast]
+2.6 +0.2 84 +1 +2 по сезону 997.2 991.7
03 20.05 СЗ 2 10 км 4/0
[Ac cast]
+8.0 +1.5 63 +6 +10 по сезону 997.4 992.0 +2.5
06 20.05 З 3 10 км 8/8 600 м
[Cb calv]
+10.1 +0.7 52 +8 +10 по сезону 997.9 992.6
09 20.05 З 4 10 км 8/0 600 м
[]
+10.2 +0.7 52 +8 +13 по сезону 999.5 994.1
12 20.05 СЗ 3 10 км 9/9 600 м
[Cb calv]
+8.7 -0.8 51 +7 +7 прохладно 1001.0 995.6
15 20.05 СЗ 3 10 км 10/3 1000 м
[Sc diur, vesp As op]
+6.6 -3.1 50 +4 +4 прохладно 1001.7 996.3 +10.6
18 20.05 СЗ 1 10 км 6/0
[Ac As]
+2.1 -0.7 82 +1 +1 прохладно 1002.0 996.5
21 20.05 штиль 0 10 км 10/5 600 м
[Sc diur, vesp As trans]
+1.5 -0.5 87 0 0 прохладно 1002.1 996.6
00 21.05 СЗ 1 10 км 10/5 600 м
[Sc diur, vesp As trans]
+3.2 +1.0 85 +2 +2 по сезону 1002.5 997.0
03 21.05 С 1 10 км 10/6 600 м
[Cb cap As op]
+3.6 +0.9 82 +2 +3 прохладно 1003.7 998.2 +1.0
06 21.05 СЗ 2 10 км 10/10 600 м
[Cu Sc]
+5.3 -0.2 68 +3 +3 холодно 1004.9 999.4
09 21.05 СЗ 3 10 км 10/10 600 м
[Sc diur, vesp]
+7.2 -2.4 50 +5 +5 прохладно 1006.0 1000.6
12 21.05 СЗ 3 10 км 9/8 600 м
[Cu Sc Ac As]
+6.4 -0.9 60 +4 +4 холодно 1007.3 1001.9
15 21.05 СЗ 2 10 км 10/8 600 м
[Cu Sc As op]
+5.5 -0.4 66 +3 +3 холодно 1008.0 1002.5 +7.6
18 21.05 С 2 10 км 9/9 600 м
[Cb calv]
+3.5 -0.5 75 +1 +1 прохладно 1008.7 1003.2
21 21.05 СЗ 1 10 км 1/1 600 м
[Sc]
+0.2 -1.5 88 -2 -2 холодно 1009.0 1003.4
00 22.05 С 1 10 км ясно -0.1 -1.6 90 -2 -2 холодно 1009.3 1003.7
03 22.05 С 2 10 км 6/0
[Ci]
+4.9 -5.1 48 +3 +7 прохладно 1009.5 1004.0 -1.2
06 22.05 СЗ 3 10 км 6/0
[Ci fib]
+8.6 -6.2 34 +7 +16 опасность
простуды
1009.3 1003.9
09 22.05 СЗ 2 10 км 10/0
[Ci fib]
+10.9 -7.0 28 +10 +20 опасность
простуды
1009.0 1003.6
12 22.05 З 1 10 км 10/0
[Cs]
+12.1 -6.5 27 +13 +17 по сезону 1008.4 1003.1
15 22.05 З 2 10 км 3/0
[Cs]
+10.2 -9.6 24 +10 +10 по сезону 1008.5 1003.1 +12.2
18 22.05 З 1 10 км 4/0
[Ac lent Cc]
+5.2 -5.8 45 +5 +5 по сезону 1008.5 1003.0
21 22.05 Ю 1 10 км 6/0
[Ac lent Cc]
+5.9 -5.2 45 +5 +5 по сезону 1007.8 1002.3
00 23.05 ЮЗ 2 10 км 8/0
[Ac trans]
+7.1 -2.2 52 +5 +6 по сезону 1007.2 1001.8
03 23.05 ЮЗ 2 10 км 6/5 600 м
[Sc diur, vesp Ac cuf]
+10.5 -0.6 46 +10 +12 тепло 1006.5 1001.2 +3.1
06 23.05 ЮЗ 3
{10}
10 км 5/5 600 м
[Sc diur, vesp]
+13.5 -1.8 35 +13 +18 тепло 1005.4 1000.1
09 23.05 Ю 3 10 км 8/6 600 м
[Sc diur, vesp Ci fib]
+15.1 -4.6 25 +15 +18 тепло 1004.2 999.0
12 23.05 Ю 3 10 км 10/10 600 м
[Cu hum As trans]
+15.6 -3.3 27 +15 +15 тепло 1003.0 997.8
15 23.05 Ю 3 10 км 8/6 1000 м
[Sc Ac cuf]
+14.4 -0.6 36 +14 +14 тепло 1000.6 995.3 +16.4

 

Местоположение метеостанции Ханты-Мансийск (Ханты-Мансийский АО, Россия): широта 61.03 долгота 69.12 высота над уровнем моря 44 м.

В архиве по умолчанию представлена погода в Ханты-Мансийске за последнюю неделю. Архивные данные за месяц целиком и за предыдущие месяцы, начиная с января 2011 года, Вы можете получить, выбрав интересующий диапазон дат из раскрывающегося списка и нажав кнопку "Ввод!".


*Определитесь, кто Вы:
робот инопланетянин человек

Внимание! Время в таблицах - всемирное. Для получения местного времени необходимо прибавить поправку, которая равна 5 ч.

Смотрите также архив погоды в соседних городах и на ближайших метеорологических станциях:

Погода в Алтае (Ханты-Мансийский АО, Россия) (78 км)
Погода в Сытомино (Ханты-Мансийский АО, Россия) (121 км)
Погода в Талинке (Ханты-Мансийский АО, Россия) (153 км)
Погода в Демьянском (Тюменская область, Россия) (159 км)
Погода в Салыме (Ханты-Мансийский АО, Россия) (167 км)
Погода в Кондинском (Ханты-Мансийский АО, Россия) (180 км)
Погода в Нефтеюганске (Ханты-Мансийский АО, Россия) (188 км)
Погода в Увате (Тюменская область, Россия) (207 км)
Погода в Октябрьском (Ханты-Мансийский АО, Россия) (226 км)
Погода в Сургуте (Ханты-Мансийский АО, Россия) (233 км)

Пояснения к столбцам:

Ветер - указаны скорость ветра в м/с - средняя за 10 мин, порывы в срок и между сроками (в фигурных скобках) и направление, откуда дует ветер: С - северный, СВ - северо-восточный, В - восточный, ЮВ - юго-восточный, Ю - южный, ЮЗ - юго-западный, З - западный, СЗ - северо-западный.
Видимость - горизонтальная дальность видимости в метрах или километрах. При видимости от 1 до 10 км при отсутствии осадков обычно наблюдается дымка, при ухудшении видимости до 1 км и менее - туман. В сухую погоду видимость может ухудшаться дымом, пылью или мглою.
Явления - указаны атмосферные явления, наблюдавшиеся в срок или в последний час перед сроком; фигурными скобками обозначены явления, наблюдавшиеся между сроками (за 1-3 часа до срока); квадратными скобками обозначены град или гололедные отложения с указанием их диаметра в мм.
Облачность - указаны через наклонную черту общая и нижняя облачность в баллах и высота нижней границы облаков в метрах; квадратными скобками обозначены формы облаков: Ci - перистые, Cs - перисто-слоистые, Cc - перисто-кучевые, Ac - высококучевые, As - высокослоистые, Sc - слоисто-кучевые, Ns - слоисто-дождевые, Cu - кучевые, Cb - кучево-дождевые. Подробнее классификацию облаков см. в Атласе облаков (PDF).
T - Температура воздуха - температура, измеренная на высоте 2 м над землей.
Td - Температура точки росы - температура, при понижении до которой содержащийся в воздухе водяной пар достигнет насыщения.
f - Относительная влажность воздуха - влажноcть воздуха, измеренная на высоте 2 м над землей.
Te - Эффективная температура - температура, которую ощущает одетый по сезону человек в тени. Характеристика душности погоды. При расчете учитывается влияние влажности воздуха и скорости ветра на теплоощущения человека.
Tes - Эффективная температура на солнце - температура, которую ощущает человек, с поправкой на солнечный нагрев. Характеристика знойности погоды. Зависит от высоты солнца над горизонтом, облачности и скорости ветра. Ночью, в пасмурную погоду, а также при ветре 12 м/с и более поправка равна нулю.
P - Атмосферное давление - приведенное к уровню моря атмосферное давление.
Po - Атмосферное давление - измеренное на уровне метеостанции атмосферное давление.
Tmin - Минимальная температура - минимум температуры воздуха на высоте 2 м над землей.
Tmax - Максимальная температура - максимум температуры воздуха на высоте 2 м над землей.
R - Количество осадков - Количество выпавших осадков за период времени, мм. При наведении курсора мыши на число - период времени, за который выпало указанное количество осадков.
R24 - Количество осадков - Количество выпавших осадков за 24 часа, мм.
S - Снежный покров - Высота снежного покрова, см. При наведении курсора мыши на число - состояние снежного покрова и степень покрытия местности в баллах.